WELCOME TO AIR WEST FLIGHT SUPPORT

Slider

THE RIGHT CHOICE FOR THE BEST SERVICE

OUR GOAL IS TO BE THE MOST ACCOMMODATING FBO IN LETHBRIDGE, AB. WITH EFFICIENT AND PROFFESSIONAL SERVICE

 WE HAVE GOT IT ALL!

  • Great Attitude
  • The Right Equipment
  • Large Facilities
  • Competitive Fuel Prices
  • In-House Aircraft Maintenance
  • In-House Flight Training, Aircraft Rentals
  • Aircraft Sales And Much  More!

Facebook By Weblizar Powered By Weblizar

 


We are located at the Lethbridge County Airport (CYQL) on Ramp 2 at the east end of Taxiway C.   Lethbridge is a key point of entry where you can clear customs using
CANPASS.  The Airport is approximately 5 km south of the City of Lethbridge, which offers convenient access to nearby towns such as Cardston, Crowsnest Pass, Coaldale, Fort MacLeod, Milk River, Pincher Creek and Taber.  Lethbridge and its surrounding area is a great tourist destination

 


Click on image to enlarge

Available data for CYQL from the past 2 hours
LETHBRIDGE VOR, AB
Metar
CYQL 242200Z 25017KT 190V250 60SM BKN300 23/M10 A3014 RMK CI7 SLP215 DENSITY ALT 4500FT

22:00 UTC

Wind: 250° 17kt

Visibility: 60 SM

Sky: BKN 30000 ft

Temp: 23 deg C / 73.4 deg F

Dewpoint: -10 deg C / 14 deg F

Pressure: 30.14 inHg

TAF
TAF AMD CYQL 242210Z 2422/2506 27015G25KT P6SM SKC BECMG 2502/2504 23012KT RMK NXT FCST BY 250000Z